Tracking 29510 objects as of 16-Sep-2024
HD Live streaming from Space Station
objects crossing your sky now

ARIANE 5 R/B

Track ARIANE 5 R/B now!
10-day predictions


NORAD ID: 41383
Int'l Code: 2016-014B
Perigee: 202.9 km
Apogee: 27,110.9 km
Inclination: 0.6 °
Period: 470.1 minutes
Semi major axis: 20027 km
RCS: Unknown
Launch date: March 9, 2016
Source: France (FR)
Launch site: FRENCH GUIANA (FRGUI)

Note: This is a ROCKET BODY
Your satellite tracking list
Your tracking list is empty




NASA's NSSDC Master Catalog

Two Line Element Set (TLE):
1 41383U 16014B   24259.47073309  .00031042  72746-6  14822-2 0  9997
2 41383   0.6297 359.7063 6717639  10.0228 358.5000  3.06301746 82012
Source of the keplerian elements: AFSPC